Time,TemperatureF,DewpointF,PressureIn,WindDirection,WindDirectionDegrees,WindSpeedMPH,WindSpeedGustMPH,Humidity,HourlyPrecipIn,Conditions,Clouds,dailyrainin,SolarRadiationWatts/m^2,SoftwareType,DateUTC
2013-04-03 00:22:00,44.0,34.0,-100.00,South,171,0.0,2.0,68,0.00,,,0.00,0.000000,,2013-04-03 06:22:00,
2013-04-03 00:32:00,44.0,34.0,-100.00,South,171,0.0,2.0,68,0.00,,,0.00,0.000000,,2013-04-03 06:32:00,
2013-04-03 00:42:00,44.0,34.0,-100.00,South,171,0.0,2.0,68,0.00,,,0.00,0.000000,,2013-04-03 06:42:00,
2013-04-03 00:52:00,44.0,34.0,-100.00,South,171,0.0,2.0,68,0.00,,,0.00,0.000000,,2013-04-03 06:52:00,
2013-04-03 01:23:00,43.0,32.0,-100.00,SSW,211,0.0,3.0,65,0.00,,,0.00,0.000000,,2013-04-03 07:23:00,
2013-04-03 01:32:00,43.0,32.0,-100.00,SSW,211,0.0,3.0,65,0.00,,,0.00,0.000000,,2013-04-03 07:32:00,
2013-04-03 01:42:00,43.0,32.0,-100.00,SSW,211,0.0,3.0,65,0.00,,,0.00,0.000000,,2013-04-03 07:42:00,
2013-04-03 01:52:00,43.0,32.0,-100.00,SSW,211,0.0,3.0,65,0.00,,,0.00,0.000000,,2013-04-03 07:52:00,
2013-04-03 02:22:00,41.0,32.0,-100.00,ESE,103,0.0,2.0,70,-99.99,,,0.00,0.000000,,2013-04-03 08:22:00,
2013-04-03 02:32:00,41.0,32.0,-100.00,ESE,103,0.0,2.0,70,-99.99,,,0.00,0.000000,,2013-04-03 08:32:00,
2013-04-03 02:42:00,41.0,32.0,-100.00,ESE,103,0.0,2.0,70,-99.99,,,0.00,0.000000,,2013-04-03 08:42:00,
2013-04-03 02:52:00,41.0,32.0,-100.00,ESE,103,0.0,2.0,70,-99.99,,,0.00,0.000000,,2013-04-03 08:52:00,
2013-04-03 03:22:00,40.0,32.0,-100.00,ESE,111,0.0,3.0,72,-99.99,,,-99.99,0.000000,,2013-04-03 09:22:00,
2013-04-03 03:33:00,40.0,32.0,-100.00,ESE,111,0.0,3.0,72,-99.99,,,-99.99,0.000000,,2013-04-03 09:33:00,
2013-04-03 03:43:00,40.0,32.0,-100.00,ESE,111,0.0,3.0,72,-99.99,,,-99.99,0.000000,,2013-04-03 09:43:00,
2013-04-03 03:52:00,40.0,32.0,-100.00,ESE,111,0.0,3.0,72,-99.99,,,-99.99,0.000000,,2013-04-03 09:52:00,
2013-04-03 04:22:00,40.0,32.0,-100.00,ESE,108,0.0,2.0,73,0.00,,,0.00,0.000000,,2013-04-03 10:22:00,
2013-04-03 04:42:00,40.0,32.0,-100.00,ESE,108,0.0,2.0,73,0.00,,,0.00,0.000000,,2013-04-03 10:42:00,
2013-04-03 04:52:00,40.0,32.0,-100.00,ESE,108,0.0,2.0,73,0.00,,,0.00,0.000000,,2013-04-03 10:52:00,
2013-04-03 05:22:00,38.0,31.0,-100.00,East,90,2.0,3.0,75,-99.99,,,0.00,0.000000,,2013-04-03 11:22:00,
2013-04-03 05:32:00,38.0,31.0,-100.00,East,90,2.0,3.0,75,-99.99,,,0.00,0.000000,,2013-04-03 11:32:00,
2013-04-03 05:42:00,38.0,31.0,-100.00,East,90,2.0,3.0,75,-99.99,,,0.00,0.000000,,2013-04-03 11:42:00,
2013-04-03 05:52:00,38.0,31.0,-100.00,East,90,2.0,3.0,75,-99.99,,,0.00,0.000000,,2013-04-03 11:52:00,
2013-04-03 06:22:00,37.0,29.0,-100.00,East,88,2.0,3.0,72,0.00,,,0.00,0.000000,,2013-04-03 12:22:00,
2013-04-03 06:32:00,37.0,29.0,-100.00,East,88,2.0,3.0,72,0.00,,,0.00,0.000000,,2013-04-03 12:32:00,
2013-04-03 06:42:00,37.0,29.0,-100.00,East,88,2.0,3.0,72,0.00,,,0.00,0.000000,,2013-04-03 12:42:00,
2013-04-03 06:52:00,37.0,29.0,-100.00,East,88,2.0,3.0,72,0.00,,,0.00,0.000000,,2013-04-03 12:52:00,
2013-04-03 07:22:00,36.0,29.0,-100.00,East,94,2.0,4.0,77,0.00,,,0.00,0.000000,,2013-04-03 13:22:00,
2013-04-03 07:32:00,36.0,29.0,-100.00,East,94,2.0,4.0,77,0.00,,,0.00,0.000000,,2013-04-03 13:32:00,
2013-04-03 07:42:00,36.0,29.0,-100.00,East,94,2.0,4.0,77,0.00,,,0.00,0.000000,,2013-04-03 13:42:00,
2013-04-03 07:52:00,36.0,29.0,-100.00,East,94,2.0,4.0,77,0.00,,,0.00,0.000000,,2013-04-03 13:52:00,
2013-04-03 08:22:00,37.0,29.0,-100.00,ENE,75,0.0,4.0,72,0.00,,,-99.99,7.000000,,2013-04-03 14:22:00,
2013-04-03 08:32:00,37.0,29.0,-100.00,ENE,75,0.0,4.0,72,0.00,,,-99.99,7.000000,,2013-04-03 14:32:00,
2013-04-03 08:42:00,37.0,29.0,-100.00,ENE,75,0.0,4.0,72,0.00,,,-99.99,7.000000,,2013-04-03 14:42:00,
2013-04-03 08:52:00,37.0,29.0,-100.00,ENE,75,0.0,4.0,72,0.00,,,-99.99,7.000000,,2013-04-03 14:52:00,
2013-04-03 09:23:00,39.0,30.0,-100.00,East,99,1.0,3.0,70,0.00,,,0.00,50.000000,,2013-04-03 15:23:00,
2013-04-03 09:33:00,39.0,30.0,-100.00,East,99,1.0,3.0,70,0.00,,,0.00,50.000000,,2013-04-03 15:33:00,
2013-04-03 09:42:00,39.0,30.0,-100.00,East,99,1.0,3.0,70,0.00,,,0.00,50.000000,,2013-04-03 15:42:00,
2013-04-03 09:53:00,39.0,30.0,-100.00,East,99,1.0,3.0,70,0.00,,,0.00,50.000000,,2013-04-03 15:53:00,
2013-04-03 10:23:00,45.0,34.0,-100.00,ESE,122,0.0,4.0,64,0.00,,,0.00,141.000000,,2013-04-03 16:23:00,
2013-04-03 10:32:00,45.0,34.0,-100.00,ESE,122,0.0,4.0,64,0.00,,,0.00,141.000000,,2013-04-03 16:32:00,
2013-04-03 10:43:00,45.0,34.0,-100.00,ESE,122,0.0,4.0,64,0.00,,,0.00,141.000000,,2013-04-03 16:43:00,
2013-04-03 10:52:00,45.0,34.0,-100.00,ESE,122,0.0,4.0,64,0.00,,,0.00,141.000000,,2013-04-03 16:52:00,
2013-04-03 11:22:00,47.0,33.0,-100.00,East,92,2.0,4.0,59,0.00,,,0.00,257.000000,,2013-04-03 17:22:00,
2013-04-03 11:32:00,47.0,33.0,-100.00,East,92,2.0,4.0,59,0.00,,,0.00,257.000000,,2013-04-03 17:32:00,
2013-04-03 11:45:00,47.0,33.0,-100.00,East,92,2.0,4.0,59,0.00,,,0.00,257.000000,,2013-04-03 17:45:00,
2013-04-03 11:52:00,47.0,33.0,-100.00,East,92,2.0,4.0,59,0.00,,,0.00,257.000000,,2013-04-03 17:52:00,
2013-04-03 12:22:00,48.0,34.0,-100.00,East,95,2.0,5.0,58,0.00,,,0.00,295.000000,,2013-04-03 18:22:00,
2013-04-03 12:33:00,48.0,34.0,-100.00,East,95,2.0,5.0,58,0.00,,,0.00,295.000000,,2013-04-03 18:33:00,
2013-04-03 12:42:00,48.0,34.0,-100.00,East,95,2.0,5.0,58,0.00,,,0.00,295.000000,,2013-04-03 18:42:00,
2013-04-03 12:52:00,48.0,34.0,-100.00,East,95,2.0,5.0,58,0.00,,,0.00,295.000000,,2013-04-03 18:52:00,
2013-04-03 13:22:00,56.0,33.0,-100.00,SE,134,2.0,6.0,41,0.00,,,0.00,566.000000,,2013-04-03 19:22:00,
2013-04-03 13:32:00,56.0,33.0,-100.00,SE,134,2.0,6.0,41,0.00,,,0.00,566.000000,,2013-04-03 19:32:00,
2013-04-03 13:42:00,56.0,33.0,-100.00,SE,134,2.0,6.0,41,0.00,,,0.00,566.000000,,2013-04-03 19:42:00,
2013-04-03 13:52:00,56.0,33.0,-100.00,SE,134,2.0,6.0,41,0.00,,,0.00,566.000000,,2013-04-03 19:52:00,
2013-04-03 14:22:00,58.0,33.0,-100.00,East,92,2.0,6.0,39,0.00,,,0.00,711.000000,,2013-04-03 20:22:00,
2013-04-03 14:32:00,58.0,33.0,-100.00,East,92,2.0,6.0,39,0.00,,,0.00,711.000000,,2013-04-03 20:32:00,
2013-04-03 14:42:00,58.0,33.0,-100.00,East,92,2.0,6.0,39,0.00,,,0.00,711.000000,,2013-04-03 20:42:00,
2013-04-03 14:52:00,58.0,33.0,-100.00,East,92,2.0,6.0,39,0.00,,,0.00,711.000000,,2013-04-03 20:52:00,
2013-04-03 15:22:00,56.0,33.0,-100.00,NW,321,2.0,5.0,42,0.00,,,0.00,422.000000,,2013-04-03 21:22:00,
2013-04-03 15:32:00,56.0,33.0,-100.00,NW,321,2.0,5.0,42,0.00,,,0.00,422.000000,,2013-04-03 21:32:00,
2013-04-03 15:42:00,56.0,33.0,-100.00,NW,321,2.0,5.0,42,0.00,,,0.00,422.000000,,2013-04-03 21:42:00,
2013-04-03 15:52:00,56.0,33.0,-100.00,NW,321,2.0,5.0,42,0.00,,,0.00,422.000000,,2013-04-03 21:52:00,
2013-04-03 16:22:00,60.0,34.0,-100.00,SW,232,4.0,12.0,37,0.00,,,0.00,580.000000,,2013-04-03 22:22:00,
2013-04-03 16:32:00,60.0,34.0,-100.00,SW,232,4.0,12.0,37,0.00,,,0.00,580.000000,,2013-04-03 22:32:00,
2013-04-03 16:42:00,60.0,34.0,-100.00,SW,232,4.0,12.0,37,0.00,,,0.00,580.000000,,2013-04-03 22:42:00,
2013-04-03 16:52:00,60.0,34.0,-100.00,SW,232,4.0,12.0,37,0.00,,,0.00,580.000000,,2013-04-03 22:52:00,
2013-04-03 17:22:00,58.0,33.0,-100.00,WSW,249,2.0,10.0,39,0.00,,,0.00,448.000000,,2013-04-03 23:22:00,
2013-04-03 17:32:00,58.0,33.0,-100.00,WSW,249,2.0,10.0,39,0.00,,,0.00,448.000000,,2013-04-03 23:32:00,
2013-04-03 17:42:00,58.0,33.0,-100.00,WSW,249,2.0,10.0,39,0.00,,,0.00,448.000000,,2013-04-03 23:42:00,
2013-04-03 17:53:00,58.0,33.0,-100.00,WSW,249,2.0,10.0,39,0.00,,,0.00,448.000000,,2013-04-03 23:53:00,
2013-04-03 18:22:00,57.0,34.0,-100.00,West,270,2.0,9.0,41,0.00,,,0.00,238.000000,,2013-04-04 00:22:00,
2013-04-03 18:32:00,57.0,34.0,-100.00,West,270,2.0,9.0,41,0.00,,,0.00,238.000000,,2013-04-04 00:32:00,
2013-04-03 18:43:00,57.0,34.0,-100.00,West,270,2.0,9.0,41,0.00,,,0.00,238.000000,,2013-04-04 00:43:00,
2013-04-03 18:52:00,57.0,34.0,-100.00,West,270,2.0,9.0,41,0.00,,,0.00,238.000000,,2013-04-04 00:52:00,
2013-04-03 19:22:00,53.0,34.0,-100.00,West,265,1.0,8.0,48,0.00,,,0.00,182.000000,,2013-04-04 01:22:00,
2013-04-03 19:32:00,53.0,34.0,-100.00,West,265,1.0,8.0,48,0.00,,,0.00,182.000000,,2013-04-04 01:32:00,
2013-04-03 19:43:00,53.0,34.0,-100.00,West,265,1.0,8.0,48,0.00,,,0.00,182.000000,,2013-04-04 01:43:00,
2013-04-03 19:52:00,53.0,34.0,-100.00,West,265,1.0,8.0,48,0.00,,,0.00,182.000000,,2013-04-04 01:52:00,
2013-04-03 20:22:00,51.0,34.0,-100.00,South,173,0.0,3.0,51,0.00,,,0.00,49.000000,,2013-04-04 02:22:00,
2013-04-03 20:32:00,51.0,34.0,-100.00,South,173,0.0,3.0,51,0.00,,,0.00,49.000000,,2013-04-04 02:32:00,
2013-04-03 20:42:00,51.0,34.0,-100.00,South,173,0.0,3.0,51,0.00,,,0.00,49.000000,,2013-04-04 02:42:00,
2013-04-03 20:52:00,51.0,34.0,-100.00,South,173,0.0,3.0,51,0.00,,,0.00,49.000000,,2013-04-04 02:52:00,
2013-04-03 21:22:00,48.0,34.0,-100.00,East,86,0.0,2.0,57,0.00,,,0.00,2.000000,,2013-04-04 03:22:00,
2013-04-03 21:33:00,48.0,34.0,-100.00,East,86,0.0,2.0,57,0.00,,,0.00,2.000000,,2013-04-04 03:33:00,
2013-04-03 21:43:00,48.0,34.0,-100.00,East,86,0.0,2.0,57,0.00,,,0.00,2.000000,,2013-04-04 03:43:00,
2013-04-03 21:53:00,48.0,34.0,-100.00,East,86,0.0,2.0,57,0.00,,,0.00,2.000000,,2013-04-04 03:53:00,
2013-04-03 22:22:00,46.0,32.0,-100.00,East,93,1.0,2.0,59,0.00,,,0.00,0.000000,,2013-04-04 04:22:00,
2013-04-03 22:33:00,46.0,32.0,-100.00,East,93,1.0,2.0,59,0.00,,,0.00,0.000000,,2013-04-04 04:33:00,
2013-04-03 22:42:00,46.0,32.0,-100.00,East,93,1.0,2.0,59,0.00,,,0.00,0.000000,,2013-04-04 04:42:00,
2013-04-03 22:52:00,46.0,32.0,-100.00,East,93,1.0,2.0,59,0.00,,,0.00,0.000000,,2013-04-04 04:52:00,
2013-04-03 23:23:00,44.0,32.0,-100.00,East,91,2.0,3.0,63,0.00,,,0.00,0.000000,,2013-04-04 05:23:00,
2013-04-03 23:32:00,44.0,32.0,-100.00,East,91,2.0,3.0,63,0.00,,,0.00,0.000000,,2013-04-04 05:32:00,
2013-04-03 23:42:00,44.0,32.0,-100.00,East,91,2.0,3.0,63,0.00,,,0.00,0.000000,,2013-04-04 05:42:00,
2013-04-03 23:52:00,44.0,32.0,-100.00,East,91,2.0,3.0,63,0.00,,,0.00,0.000000,,2013-04-04 05:52:00,